Location: Bernay
(48.6766°N, 2.9386°E)
Time: 00:19:09
(UTC+00:00)

SJ 16-02 - Pass Details

Date: 23 April 2026
Orbit: 582 x 592 km, 75.0° (Epoch: 19 May)

Event Time Altitude Azimuth Distance (km) Brightness Sun altitude
Rises 21:41:36 0° 339° (NNW) 2,824 6.1 -22.6°
Reaches altitude 10° 21:43:50 10° 341° (NNW) 1,917 4.9 -22.8°
Enters shadow 21:48:06 75° 67° (ENE) 610 1.2 -23.2°
